Location: Ambrosina
(19.9365°S, 43.9833°W)
Time: 01:40:00
(UTC+00:00)

Cosmos 2278 Rocket - Pass Details

Date: 11 May 2021
Orbit: 841 x 845 km, 71.0° (Epoch: 20 June)

Event Time Altitude Azimuth Distance (km) Brightness Sun altitude
Rises 21:38:22 0° 182° (S) 3,420 5.2 -16.5°
Reaches altitude 10° 21:41:09 10° 170° (S) 2,478 4.4 -17.2°
Enters shadow 21:45:12 28° 126° (SE) 1,548 3.0 -18.1°
